Waarnemingen

Advertentie
Mijn weer
Ueckermünde, Duitsland (10193): temperatuur & dauwpunt: 08.12.2018 16:00:00 - 14.12.2018 16:00:00 (CET)Ueckermünde, Duitsland (10193): temperatuur 5cm & temperatuur -5cm: 08.12.2018 16:00:00 - 14.12.2018 16:00:00 (CET)Ueckermünde, Duitsland (10193): temperatuur -20cm & temperatuur -100cm: 08.12.2018 16:00:00 - 14.12.2018 16:00:00 (CET)Ueckermünde, Duitsland (10193): windsnelheid & windstoten: 08.12.2018 16:00:00 - 14.12.2018 16:00:00 (CET)Ueckermünde, Duitsland (10193): windrichting: 08.12.2018 16:00:00 - 14.12.2018 16:00:00 (CET)Ueckermünde, Duitsland (10193): luchtdruk: 08.12.2018 16:00:00 - 14.12.2018 16:00:00 (CET)Ueckermünde, Duitsland (10193): zicht: 08.12.2018 16:00:00 - 14.12.2018 16:00:00 (CET)Ueckermünde, Duitsland (10193): Zonneschijnduur: 08.12.2018 16:00:00 - 14.12.2018 16:00:00 (CET)Ueckermünde, Duitsland (10193): neerslag: 08.12.2018 16:00:00 - 14.12.2018 16:00:00 (CET)
Datum & Tijd tt [°C] td [°C] tt 5cm [°C] tt -5cm [°C] tt -20cm [°C] tt -100cm [°C] ff [km/u] ff [kn] fx [km/u] fx [kn] dd ppp [hPa] vv [km] sd [min] rr [mm]
14.12.2018 16:00:00 0,2 -2,5 0,0 1,4 3,2 7,2 7 4 14 8 O 1028,9 17 0 0,0
14.12.2018 15:00:00 0,2 -2,4 0,2 1,6 3,2 7,2 8 4 16 8 O 1028,6 17 0 0,0
14.12.2018 14:00:00 0,3 -2,5 0,3 1,8 3,2 7,2 7 4 14 8 O 1028,4 17 0 0,0
14.12.2018 13:00:00 0,4 -2,8 0,5 1,7 3,3 7,2 9 5 15 8 O 1028,1 19 0 0,0
14.12.2018 12:00:00 0,1 -2,6 0,2 1,5 3,3 7,2 8 4 13 7 O 1028,1 16 0 0,0
14.12.2018 11:00:00 -0,1 -2,1 -0,1 1,3 3,3 7,3 6 3 13 7 OZO 1028,1 11 0 0,0
14.12.2018 10:00:00 -0,1 -2,2 -0,3 1,3 3,4 7,3 7 4 21 11 ZO 1027,7 13 0 0,1
14.12.2018 09:00:00 0,4 -1,6 0,2 1,4 3,4 7,3 4 2 8 4 OZO 1027,0 8 0 0,0
14.12.2018 08:00:00 0,4 -1,3 0,2 1,5 3,5 7,3 4 2 11 6 ZO 1026,6 8 0 0,0
14.12.2018 07:00:00 0,6 -1,1 0,4 1,5 3,5 7,3 6 3 10 6 OZO 1026,1 6 0 0,0
14.12.2018 06:00:00 0,9 -1,0 0,6 1,6 3,5 7,3 6 4 13 7 ZO 1025,9 14 0 0,0
14.12.2018 05:00:00 1,1 -1,2 0,8 1,6 3,6 7,3 6 4 14 8 O 1025,9 14 0 0,0
14.12.2018 04:00:00 1,5 -1,4 1,1 1,7 3,6 7,3 9 5 16 9 ONO 1025,8 24 0 0,0
14.12.2018 03:00:00 1,5 -1,9 1,1 1,7 3,7 7,3 8 5 15 8 O 1026,1 30 0 0,0
14.12.2018 02:00:00 1,3 -2,5 0,5 1,8 3,8 7,3 4 2 15 8 O 1025,8 35 0 0,0
14.12.2018 01:00:00 1,2 -1,9 0,8 1,8 3,8 7,3 5 3 12 6 Z 1025,6 26 0 0,0
14.12.2018 00:00:00 1,4 -1,6 1,1 1,9 3,9 7,3 9 5 16 9 OZO 1025,4 22 0 0,0
13.12.2018 23:00:00 1,8 -1,6 1,4 2,0 3,9 7,3 8 4 13 7 O 1025,6 28 0 0,0
13.12.2018 22:00:00 2,1 -1,6 1,7 2,1 4,0 7,3 7 4 17 9 O 1025,5 28 0 0,0
13.12.2018 21:00:00 2,5 -1,4 2,1 2,2 4,1 7,3 11 6 18 10 ONO 1025,2 38 0 0,0
13.12.2018 20:00:00 2,5 -1,6 2,1 2,3 4,1 7,3 9 5 15 8 ONO 1025,1 43 0 0,0
13.12.2018 19:00:00 2,6 -1,9 2,1 2,4 4,2 7,3 10 5 16 8 ONO 1025,0 61 0 0,0
13.12.2018 18:00:00 2,5 -1,2 2,1 2,7 4,3 7,3 9 5 17 9 ONO 1025,0 38 0 0,0
13.12.2018 17:00:00 2,5 -0,8 2,1 2,9 4,3 7,4 11 6 16 9 NO 1025,0 48 0 0,0
13.12.2018 16:00:00 2,5 -1,0 2,1 3,3 4,3 7,4 5 3 13 7 ONO 1025,0 57 0 0,0
13.12.2018 15:00:00 2,6 -0,3 2,4 3,8 4,3 7,4 6 3 14 8 ONO 1025,2 55 0 0,0
13.12.2018 14:00:00 2,6 0,1 2,8 4,1 4,2 7,4 8 4 14 8 NO 1025,1 35 0 0,0
13.12.2018 13:00:00 2,8 0,3 3,1 3,8 4,1 7,4 9 5 18 10 ONO 1025,5 35 0 0,0
13.12.2018 12:00:00 2,6 0,4 2,9 3,6 4,0 7,4 10 5 21 11 ONO 1025,8 29 0 0,0
13.12.2018 11:00:00 2,4 0,7 2,5 3,1 4,0 7,4 14 8 22 12 O 1026,0 19 0 0,0
13.12.2018 10:00:00 2,2 0,9 2,2 2,7 4,0 7,4 13 7 22 12 O 1026,2 12 0 0,0
13.12.2018 09:00:00 2,4 1,1 2,3 2,5 4,1 7,4 12 6 20 11 ONO 1026,0 17 0 0,0
13.12.2018 08:00:00 2,5 1,1 2,1 2,6 4,1 7,4 13 7 22 12 ONO 1025,8 21 0 0,0
13.12.2018 07:00:00 2,9 1,4 2,6 2,7 4,1 7,4 11 6 19 11 NO 1025,6 57 0 0,0
13.12.2018 06:00:00 2,8 1,3 2,0 2,5 4,1 7,4 8 4 16 8 NNO 1025,8 70 0 0,0
13.12.2018 05:00:00 2,7 1,4 2,3 2,8 4,2 7,4 10 5 21 11 ONO 1026,0 70 0 0,0
13.12.2018 04:00:00 3,3 2,0 2,6 2,9 4,2 7,4 9 5 17 9 NNO 1026,3 70 0 0,0
13.12.2018 03:00:00 3,3 2,4 3,1 3,0 4,2 7,4 6 4 21 11 NO 1026,7 70 0 0,1
13.12.2018 02:00:00 3,3 2,2 3,0 2,8 4,2 7,4 10 6 16 9 NNO 1026,7 70 0 0,0
13.12.2018 01:00:00 3,4 2,2 2,9 2,7 4,2 7,4 10 5 20 11 NNO 1027,0 70 0 0,0
13.12.2018 00:00:00 3,5 2,0 2,9 2,7 4,2 7,4 10 5 20 11 NO 1027,0 59 0 0,0
12.12.2018 23:00:00 3,4 2,0 2,7 2,4 4,3 7,4 9 5 16 9 NO 1027,1 70 0 0,0
12.12.2018 22:00:00 3,3 2,1 2,4 2,3 4,4 7,4 8 4 18 10 NNO 1027,2 70 0 0,0
12.12.2018 21:00:00 3,1 1,7 1,8 2,2 4,5 7,4 10 6 22 12 NNO 1027,1 70 0 0,0
12.12.2018 20:00:00 3,4 1,9 2,5 2,1 4,6 7,4 14 8 22 12 NO 1026,9 70 0 0,0
12.12.2018 19:00:00 2,3 1,8 -0,3 2,1 4,8 7,5 6 4 13 7 NNO 1026,8 49 0 0,0
12.12.2018 18:00:00 1,6 1,1 -0,4 2,7 4,9 7,5 3 2 6 4 NNO 1026,7 13 0 0,0
12.12.2018 17:00:00 2,6 1,7 -0,6 3,7 5,0 7,5 4 2 9 5 NNW 1026,3 28 0 0,0
12.12.2018 16:00:00 3,5 2,1 3,1 4,5 5,0 7,5 7 4 18 10 NNO 1026,2 64 0 0,0
12.12.2018 15:00:00 3,7 1,8 3,7 4,9 4,9 7,5 10 5 15 8 NNO 1026,0 70 0 0,0
12.12.2018 14:00:00 3,7 1,8 3,8 5,4 4,7 7,5 9 5 14 7 NNO 1025,8 46 0 0,0
12.12.2018 13:00:00 4,3 2,4 5,9 5,2 4,6 7,5 7 4 15 8 NNO 1025,3 35 14 0,0
12.12.2018 12:00:00 4,0 2,4 4,0 4,5 4,6 7,5 7 4 13 7 O 1025,3 49 0 0,0
12.12.2018 11:00:00 3,8 2,9 3,8 4,0 4,5 7,5 8 4 13 7 O 1024,9 10 0 0,3
12.12.2018 10:00:00 3,7 2,8 3,5 3,7 4,5 7,5 9 5 15 8 NO 1024,3 23 0 0,4
12.12.2018 09:00:00 3,8 2,9 3,6 3,6 4,5 7,5 9 5 22 12 N 1024,0 19 0 0,1
12.12.2018 08:00:00 4,0 2,7 3,5 3,5 4,5 7,5 12 7 21 11 N 1023,3 11 0 0,1
12.12.2018 07:00:00 3,7 2,6 3,3 3,4 4,5 7,5 8 4 12 7 N 1022,9 42 0 0,1
12.12.2018 06:00:00 3,9 2,4 3,4 3,4 4,5 7,5 7 4 16 8 NO 1022,5 13 0 0,4
12.12.2018 05:00:00 3,5 2,7 3,1 3,2 4,5 7,5 6 3 10 5 NW 1022,1 24 0 0,0
12.12.2018 04:00:00 4,0 2,0 2,9 3,4 4,5 7,5 5 3 13 7 N 1021,6 43 0 0,0
12.12.2018 03:00:00 4,0 2,0 3,3 3,3 4,6 7,5 7 4 17 9 N 1021,2 45 0 0,0
12.12.2018 02:00:00 4,2 2,0 3,3 3,1 4,6 7,5 13 7 23 13 NNO 1020,6 49 0 0,0
12.12.2018 01:00:00 4,0 2,5 2,5 3,3 4,7 7,5 11 6 20 11 N 1020,1 70 0 0,0
12.12.2018 00:00:00 4,3 2,5 3,3 3,8 4,7 7,6 13 7 26 14 NNO 1019,1 70 0 0,0
11.12.2018 23:00:00 4,4 3,1 3,9 3,9 4,6 7,6 14 8 33 18 N 1018,6 66 0 0,5
11.12.2018 22:00:00 4,6 2,9 4,0 3,7 4,6 7,6 16 9 29 16 N 1018,3 16 0 0,1
11.12.2018 21:00:00 4,5 1,9 3,5 3,6 4,7 7,6 13 7 29 16 N 1017,8 70 0 0,0
11.12.2018 20:00:00 4,7 1,6 3,6 3,5 4,7 7,6 13 7 24 13 N 1017,4 69 0 0,0
11.12.2018 19:00:00 4,3 1,6 3,2 3,3 4,7 7,6 9 5 23 12 N 1016,9 70 0 0,0
11.12.2018 18:00:00 3,7 1,8 2,3 3,6 4,8 7,6 11 6 27 15 N 1016,2 70 0 0,0
11.12.2018 17:00:00 3,9 1,9 3,1 3,8 4,8 7,6 14 7 28 15 N 1015,7 70 0 0,5
11.12.2018 16:00:00 3,6 1,7 3,1 4,1 4,8 7,6 19 11 35 19 N 1014,8 8 0 0,8
11.12.2018 15:00:00 3,8 2,9 3,7 4,2 4,7 7,6 11 6 24 13 NW 1014,3 17 0 0,5
11.12.2018 14:00:00 4,0 2,8 3,8 4,3 4,7 7,6 13 7 22 12 NW 1013,8 9 0 0,1
11.12.2018 13:00:00 3,7 2,5 3,6 4,2 4,6 7,6 12 7 19 11 WNW 1013,3 7 0 0,0
11.12.2018 12:00:00 3,1 2,0 3,3 4,2 4,5 7,6 14 8 26 14 NW 1012,9 11 0 0,0
11.12.2018 11:00:00 3,9 0,5 3,5 3,9 4,5 7,6 9 5 21 11 NW 1012,6 70 32 0,0
11.12.2018 10:00:00 3,3 0,5 2,5 2,9 4,5 7,6 11 6 24 13 NW 1012,0 70 7 0,0
11.12.2018 09:00:00 3,0 0,6 2,1 2,9 4,6 7,6 18 10 30 16 N 1011,2 69 0 0,1
11.12.2018 08:00:00 3,0 0,8 2,4 3,1 4,6 7,6 11 6 36 20 NNW 1010,2 70 0 0,3
11.12.2018 07:00:00 3,1 1,0 2,4 3,3 4,6 7,6 12 7 39 21 NNW 1009,0 70 0 0,2
11.12.2018 06:00:00 3,4 1,7 2,9 3,4 4,6 7,6 10 6 34 19 N 1008,1 70 0 0,7
11.12.2018 05:00:00 3,6 2,2 3,1 3,5 4,6 7,6 12 6 34 19 NW 1007,2 10 0 0,1
11.12.2018 04:00:00 3,9 2,0 3,2 3,5 4,6 7,6 23 12 42 23 NW 1006,5 70 0 0,0
11.12.2018 03:00:00 4,0 1,9 3,4 3,6 4,6 7,7 28 15 44 24 WNW 1006,1 22 0 0,7
11.12.2018 02:00:00 4,3 1,9 3,4 3,5 4,6 7,7 18 10 39 21 W 1005,8 8 0 0,2
11.12.2018 01:00:00 4,2 1,8 3,4 3,4 4,6 7,7 21 11 36 19 W 1005,9 45 0 0,2
11.12.2018 00:00:00 4,3 1,7 3,5 3,3 4,6 7,7 21 11 32 17 W 1006,2 28 0 0,0
10.12.2018 23:00:00 4,1 1,5 3,4 3,1 4,6 7,7 19 10 31 17 W 1006,3 43 0 0,0
10.12.2018 22:00:00 4,0 1,7 3,1 2,9 4,7 7,7 18 10 28 15 W 1006,3 46 0 0,0
10.12.2018 21:00:00 3,5 1,9 2,8 2,6 4,8 7,7 16 9 27 15 WZW 1006,2 52 0 0,0
10.12.2018 20:00:00 2,8 1,4 1,8 2,5 4,9 7,7 18 10 28 15 WZW 1006,1 70 0 0,0
10.12.2018 19:00:00 2,8 1,2 1,7 2,9 5,0 7,7 21 11 34 18 WZW 1006,0 70 0 0,0
10.12.2018 18:00:00 3,7 1,5 3,0 3,4 5,1 7,7 24 13 40 22 WZW 1006,1 70 0 0,0
10.12.2018 17:00:00 4,1 1,3 3,1 3,5 5,1 7,7 19 10 41 22 WZW 1005,8 70 0 0,2
10.12.2018 16:00:00 4,4 1,1 3,3 3,9 5,1 7,7 27 15 47 25 W 1006,0 8 0 0,0
10.12.2018 15:00:00 4,8 1,4 3,7 4,3 5,1 7,7 23 13 40 21 W 1005,6 65 9 0,0
10.12.2018 14:00:00 4,9 2,5 4,8 3,8 5,1 7,7 19 11 43 23 W 1005,5 37 9 0,6
10.12.2018 13:00:00 3,7 1,6 2,7 3,7 5,2 7,6 24 13 37 20 W 1005,6 70 1 0,0
10.12.2018 12:00:00 4,1 2,1 3,5 4,2 5,2 7,6 23 13 37 20 W 1005,6 43 0 1,8
10.12.2018 11:00:00 4,1 2,1 3,6 3,9 5,2 7,6 21 11 43 23 W 1005,4 43 0 1,2
10.12.2018 10:00:00 4,1 2,1 3,5 3,8 5,2 7,6 13 7 43 23 WNW 1005,1 5 0 0,6
10.12.2018 09:00:00 5,0 1,2 4,4 3,6 5,3 7,6 21 11 35 19 W 1004,3 40 0 0,0
10.12.2018 08:00:00 4,7 0,6 3,8 3,3 5,3 7,6 19 10 42 23 W 1003,8 43 0 0,0
10.12.2018 07:00:00 5,5 0,1 4,3 3,5 5,4 7,6 25 13 46 25 W 1003,0 63 0 0,0
10.12.2018 06:00:00 5,3 0,4 4,5 3,3 5,5 7,6 22 12 37 20 W 1002,5 60 0 0,0
10.12.2018 05:00:00 4,3 0,3 2,7 3,2 5,7 7,6 16 9 34 19 W 1001,8 53 0 0,0
10.12.2018 04:00:00 4,6 1,2 3,0 3,6 5,8 7,6 17 9 34 19 W 1001,0 40 0 0,0
10.12.2018 03:00:00 5,1 2,5 4,0 3,7 6,0 7,6 27 14 44 24 W 1000,5 52 0 0,0
10.12.2018 02:00:00 3,9 0,7 2,2 3,5 6,1 7,6 16 9 38 20 W 999,9 70 0 0,0
10.12.2018 01:00:00 4,5 0,8 2,7 4,4 6,2 7,6 24 13 40 22 WNW 999,2 70 0 0,0
10.12.2018 00:00:00 4,5 1,4 3,5 4,7 6,3 7,6 23 12 47 26 WNW 998,0 70 0 0,0
09.12.2018 23:00:00 5,3 3,5 4,7 5,5 6,4 7,6 25 14 49 27 WNW 996,2 70 0 0,2
09.12.2018 22:00:00 6,1 4,0 5,4 5,6 6,4 7,6 21 12 46 25 W 994,6 33 0 0,0
09.12.2018 21:00:00 6,4 3,8 5,4 5,7 6,4 7,6 25 13 39 21 W 993,5 70 0 0,0
09.12.2018 20:00:00 6,6 4,4 5,7 5,8 6,5 7,6 21 11 34 18 WZW 992,5 61 0 0,5
09.12.2018 19:00:00 6,5 4,7 5,8 5,9 6,5 7,6 21 11 31 17 WZW 991,7 70 0 0,2
09.12.2018 18:00:00 6,4 4,7 5,7 5,9 6,6 7,6 19 10 31 17 WZW 991,1 12 0 0,4
09.12.2018 17:00:00 7,0 4,3 5,8 5,9 6,6 7,6 19 11 29 16 WZW 990,9 70 0 0,0
09.12.2018 16:00:00 6,8 4,9 5,8 6,2 6,6 7,6 14 8 31 17 WZW 990,3 70 0 2,4
09.12.2018 15:00:00 7,2 5,3 6,6 6,8 6,6 7,5 17 9 31 17 WZW 989,6 8 0 0,0
09.12.2018 14:00:00 7,3 5,2 6,8 6,9 6,5 7,5 19 11 34 18 WZW 989,0 39 0 0,0
09.12.2018 13:00:00 7,5 5,0 7,5 7,0 6,4 7,5 19 10 40 21 WZW 988,7 70 0 0,0
09.12.2018 12:00:00 7,1 4,7 6,9 6,7 6,3 7,5 23 12 37 20 WZW 988,4 70 0 0,0
09.12.2018 11:00:00 7,1 4,9 6,9 6,3 6,3 7,5 23 12 34 18 WZW 988,0 47 8 0,0
09.12.2018 10:00:00 6,7 5,4 6,3 6,1 6,3 7,5 17 9 26 14 WZW 987,4 40 0 0,1
09.12.2018 09:00:00 6,6 5,5 6,2 6,0 6,2 7,5 16 9 36 20 W 986,3 21 0 1,0
09.12.2018 08:00:00 7,1 5,4 6,4 6,1 6,2 7,5 25 13 36 20 W 984,8 12 0 0,9
09.12.2018 07:00:00 7,2 5,9 6,7 6,0 6,2 7,5 15 8 31 17 ZZW 984,0 4,8 0 0,0
09.12.2018 06:00:00 7,3 5,4 6,5 5,8 6,1 7,5 18 10 32 18 ZZW 984,0 70 0 0,0
09.12.2018 05:00:00 6,9 5,2 6,1 5,7 6,1 7,5 23 12 38 21 Z 984,5 70 0 0,0
09.12.2018 04:00:00 6,7 5,2 6,1 5,6 6,1 7,5 26 14 47 26 Z 985,6 59 0 0,2
09.12.2018 03:00:00 6,3 4,7 5,7 5,3 6,2 7,5 26 14 40 22 Z 987,0 8 0 0,4
09.12.2018 02:00:00 6,5 3,5 5,4 5,0 6,2 7,5 24 13 39 21 Z 988,7 24 0 0,0
09.12.2018 01:00:00 6,3 2,9 5,5 4,8 6,3 7,4 22 12 38 21 ZZW 990,1 59 0 0,0
09.12.2018 00:00:00 7,3 3,0 6,2 5,2 6,4 7,4 23 12 49 26 ZZW 991,4 54 0 0,0
08.12.2018 23:00:00 8,3 3,4 7,2 5,8 6,4 7,4 29 16 45 25 ZW 992,0 66 0 0,0
08.12.2018 22:00:00 8,2 4,0 7,1 5,7 6,4 7,4 28 15 48 26 ZW 992,6 70 0 0,0
08.12.2018 21:00:00 7,7 4,8 7,1 6,0 6,5 7,4 25 14 44 24 ZW 993,0 70 0 0,0
08.12.2018 20:00:00 7,6 4,7 7,2 5,9 6,5 7,4 25 13 41 22 ZW 993,5 70 0 0,0
08.12.2018 19:00:00 7,5 4,5 7,0 6,0 6,5 7,4 26 14 46 25 ZZW 993,8 70 0 0,0
08.12.2018 18:00:00 7,3 4,0 6,8 6,0 6,5 7,4 26 14 47 25 ZZW 994,3 70 0 0,0
08.12.2018 17:00:00 7,9 3,3 7,4 5,9 6,5 7,4 33 18 52 28 ZW 994,6 70 0 0,0
08.12.2018 16:00:00 7,8 3,2 7,2 6,0 6,5 7,3 27 15 49 26 ZZW 995,0 70 0 0,0

tt = temperatuur
td = dauwpunt
tt 5cm = temperatuur 5cm
tt -5cm = temperatuur -5cm
tt -20cm = temperatuur -20cm
tt -100cm = temperatuur -100cm
ff = windsnelheid
fx = windstoten
dd = windrichting
ppp = luchtdruk
vv = zicht
sd = Zonneschijnduur
rr = neerslag

Weerstations in de omgeving